Showing default

SIT-2086, 61764

Orbit data source: Space-Track

SIT-2086, 61764 is a Commonwealth of Independent States-origin payload satellite in SSO that was launched on Mon, 04 Nov 2024 UTC via a SOYUZ-2-1B launch vehicle from the Vostochny Cosmodrome (VOSTO). Payload-class satellites include a variety of spacecraft equipped with specific instruments for various scientific and technological missions. These include communications satellites like Starlink; space stations such as the ISS; scientific satellites like the Hubble; Earth observation satellites from companies like Planet Labs, Umbra, and HawkEye 360; GPS; miniature CubeSats for education and research; and military/defense satellites.

Loading next visibility...
Identifier
61764, 2024-199AF
Orbit
SSO
Country
Flag of CISCIS
Related business
Manufacturer
Sputniks
Mission
Operational Amateur Technology
Bus & Motor
CUBESAT 3U, Unknown motor
Mass
3 kg wet, 3 kg dry
Launch date (UTC)
2024-11-04 (10 months ago)
Launch vehicle
SOYUZ-2-1B
Launch site
Vostochny Cosmodrome (VOSTO)
Object type
Payload
Rocket body
Debris
Shape & HBR
Box, 0.1 m
Radar Cross Section
0.035 m², Small (<0.1 m²)

Expand to show TLE details & history
Last TLE update: 15 hours ago

TLE from 15 hours ago
0 SIT-2086
1 61764U 24199AF  25260.22571579  .00012912  00000-0  34370-3 0  9997
2 61764  97.3377 129.3178 0008298 175.8892 184.2423 15.38301510 92271
Epoch: 2025-09-17T05:25Z
TLE epoch observation values (Epoch: 2025-09-17T05:25:01.844Z)
Latitude
Longitude
51.6554°
Altitude
459.901 km
Speed
7.634 km/s
True Right ascension
08h 37m 16s
True Declination
0° 00' 00"
Sunlit
Object was in daylight at epoch
Visualization orbit readout
Latitude
Unknown
Longitude
Unknown
Altitude
Unknown
Speed
Unknown
Apparent Right ascension
Unknown
Apparent Declination
Unknown
Sunlit
N/A
Visualization observer readout
Local Sidereal Time
13:08:20
Azimuth
Unknown
Elevation
Unknown
Doppler factor
Unknown
Orbital elements
Apogee altitude
453.735 km
Perigee altitude
442.406 km
Semi-major axis
6,826.207 km
Eccentricity
0.00083
Inclination
97.3377°
RAAN
129.3178°
Arg. of periapsis
175.8892°
True anomaly
184.23527°
Mean anomaly
184.2423°
Eccentric anomaly
184.23879°
Mean motion
3.84834 °/min
Orbital period
93.55 mins
BSTAR
0.0003437
Loading maneuver chart data...
Computing Atmospheric mass density...
Loading historical data...
Loading historical data...
Loading historical data...
Loading historical data...
Loading historical data...
Loading historical data...
Loading historical data...

Documentation

Showing up to 5 results
|